FW5819 Weather Reports


Display with metric or nautical units.
time (UTC)temp
F
wind
direction
speed
MPH
gust
MPH
rain 1hr
in
rain 24hr
in
rain mn
in
humidity
%
barometer
mb
20260903051552 82 0 1.0 7.0 0.00 0.00 0.00 80 1015.2
20260903050049 82 285 1.0 6.0 0.00 0.00 0.00 80 1014.9
20260903044546 82 265 2.0 6.0 0.00 0.00 0.00 80 1014.6
20260903043042 82 249 1.0 4.0 0.00 0.00 0.00 79 1014.4
20260903041544 82 177 1.0 8.0 0.00 0.00 0.00 79 1014.1
20260903040047 81 239 2.0 10.0 0.00 0.00 0.00 80 1014.1
20260903034541 81 0 1.0 8.0 0.00 0.00 0.00 80 1013.9
20260903033047 80 212 1.0 6.0 0.00 0.00 0.00 80 1013.8
20260903031544 80 223 1.0 6.0 0.00 0.00 0.00 80 1013.4
20260903030042 80 0 1.0 5.0 0.00 0.00 0.00 80 1013.9
20260903024543 80 182 1.0 5.0 0.00 0.00 0.00 80 1014.2
20260903023058 81 0 1.0 5.0 0.00 0.00 0.00 80 1014.4
20260903021547 81 229 0.0 10.0 0.00 0.00 0.00 80 1014.3
20260903020044 81 0 0.0 3.0 0.00 0.00 0.00 79 1014.5
20260903014542 81 121 0.0 2.0 0.00 0.00 0.00 79 1014.8
20260903013040 82 0 0.0 4.0 0.00 0.00 0.00 79 1014.7
20260903011542 81 223 0.0 4.0 0.00 0.00 0.00 80 1014.6
20260903010043 81 0 0.0 2.0 0.00 0.00 0.00 80 1014.4
20260903004541 81 0 0.0 0.0 0.00 0.00 0.00 80 1014.5
20260903003048 82 0 0.0 0.0 0.00 0.00 0.00 77 1014.5
20260903001544 84 0 0.0 2.0 0.00 0.00 0.00 75 1014.4
20260903000042 85 0 0.0 3.0 0.00 0.00 0.00 73 1014.4
20260902234540 86 170 1.0 4.0 0.00 0.00 0.00 71 1014.5
20260902233043 88 200 0.0 4.0 0.00 0.00 0.00 70 1014.4
20260902231556 89 0 0.0 4.0 0.00 0.00 0.00 68 1014.3
20260902230041 90 173 1.0 7.0 0.00 0.00 0.00 67 1014.1
20260902224542 91 241 2.0 7.0 0.00 0.00 0.00 65 1014.2
20260902223044 92 277 1.0 6.0 0.00 0.00 0.00 64 1014.1
20260902221552 92 234 2.0 9.0 0.00 0.00 0.00 63 1014.3
20260902220045 92 208 3.0 7.0 0.00 0.00 0.00 63 1014.3
20260902214546 93 248 1.0 9.0 0.00 0.00 0.00 63 1014.5
20260902213049 93 284 2.0 10.0 0.00 0.00 0.00 62 1014.3
20260902211548 94 256 3.0 7.0 0.00 0.00 0.00 63 1014.5
20260902210042 94 195 3.0 9.0 0.00 0.00 0.00 62 1014.7
20260902204541 94 277 3.0 7.0 0.00 0.00 0.00 62 1014.8
20260902203044 94 192 4.0 12.0 0.00 0.00 0.00 60 1014.9
20260902201544 94 229 2.0 9.0 0.00 0.00 0.00 62 1015.1
20260902200045 94 224 3.0 10.0 0.00 0.00 0.00 62 1015.2
20260902194541 94 232 3.0 7.0 0.00 0.00 0.00 64 1015.3
20260902193053 94 259 2.0 8.0 0.00 0.00 0.00 64 1015.5
20260902191541 93 321 3.0 9.0 0.00 0.00 0.00 66 1015.6
20260902190043 94 279 4.0 10.0 0.00 0.00 0.00 63 1015.7
20260902184542 94 221 2.0 8.0 0.00 0.00 0.00 66 1015.8
20260902183048 94 309 2.0 5.0 0.00 0.00 0.00 65 1016.0
20260902181546 93 99 3.0 6.0 0.00 0.00 0.00 66 1016.1
20260902180040 93 252 4.0 9.0 0.00 0.00 0.00 65 1016.2
20260902174551 92 45 2.0 4.0 0.00 0.00 0.00 68 1016.4
20260902173041 91 271 3.0 7.0 0.00 0.00 0.00 68 1016.6
20260902171540 91 257 1.0 6.0 0.00 0.00 0.00 67 1016.9
20260902170042 91 277 1.0 4.0 0.00 0.00 0.00 69 1017.2
20260902164545 91 292 2.0 6.0 0.00 0.00 0.00 66 1017.0
20260902163041 91 240 2.0 6.0 0.00 0.00 0.00 67 1017.2
20260902161541 91 128 1.0 5.0 0.00 0.00 0.00 67 1017.1
20260902160050 90 252 1.0 4.0 0.00 0.00 0.00 68 1017.2
20260902154559 89 251 1.0 5.0 0.00 0.00 0.00 69 1017.3
20260902153041 89 209 2.0 4.0 0.00 0.00 0.00 71 1017.4
20260902151543 88 292 1.0 4.0 0.00 0.00 0.00 74 1017.3
20260902150041 87 281 1.0 5.0 0.00 0.00 0.00 73 1017.4
20260902144542 86 250 1.0 4.0 0.00 0.00 0.00 75 1017.4
20260902143040 85 194 1.0 4.0 0.00 0.00 0.00 76 1017.2
20260902141542 84 163 2.0 7.0 0.00 0.00 0.00 78 1017.1
20260902140046 84 270 2.0 7.0 0.00 0.00 0.00 79 1016.9
20260902134545 83 258 1.0 7.0 0.00 0.00 0.00 80 1017.0
20260902133040 83 236 2.0 5.0 0.00 0.00 0.00 80 1016.8
20260902131541 82 274 1.0 6.0 0.00 0.00 0.00 82 1017.0
20260902130043 81 225 2.0 6.0 0.00 0.00 0.00 83 1017.0
20260902124543 81 284 1.0 5.0 0.00 0.00 0.00 85 1016.9
20260902123040 79 267 2.0 4.0 0.00 0.00 0.00 87 1017.1
20260902121540 77 254 1.0 3.0 0.00 0.00 0.00 90 1017.0
20260902120331 76 0 0.0 2.0 0.00 0.00 0.00 91 1016.9
20260902120044 76 0 0.0 2.0 0.00 0.00 0.00 91 1016.9
20260902114610 75 166 0.0 3.0 0.00 0.00 0.00 91 1016.7
20260902113048 75 207 0.0 2.0 0.00 0.00 0.00 91 1016.6
20260902111540 75 0 0.0 2.0 0.00 0.00 0.00 91 1016.5
20260902110046 75 219 0.0 3.0 0.00 0.00 0.00 91 1016.2
20260902104543 75 0 0.0 2.0 0.00 0.00 0.00 91 1016.2
20260902103052 75 196 0.0 3.0 0.00 0.00 0.00 91 1016.2
20260902101543 75 0 0.0 3.0 0.00 0.00 0.00 91 1016.1
20260902100104 75 0 0.0 4.0 0.00 0.00 0.00 92 1016.3
20260902094541 75 0 0.0 2.0 0.00 0.00 0.00 91 1016.2
20260902093104 75 173 1.0 4.0 0.00 0.00 0.00 92 1016.4
20260902092019 74 194 0.0 6.0 0.00 0.00 0.00 92 1016.3
20260902090039 74 0 0.0 3.0 0.00 0.00 0.00 92 1016.3
20260902084544 74 142 0.0 3.0 0.00 0.00 0.00 92 1016.4
20260902083043 74 0 0.0 2.0 0.00 0.00 0.00 92 1016.4
20260902081548 74 0 0.0 1.0 0.00 0.00 0.00 93 1016.3
20260902080041 74 0 0.0 0.0 0.00 0.00 0.00 93 1016.2
20260902074542 74 0 0.0 0.0 0.00 0.00 0.00 93 1016.1
20260902073039 74 0 0.0 2.0 0.00 0.00 0.00 93 1016.2
20260902071546 74 0 0.0 1.0 0.00 0.00 0.00 93 1016.2
20260902070044 74 0 0.0 1.0 0.00 0.00 0.00 93 1016.2
20260902064544 73 0 0.0 1.0 0.00 0.00 0.00 93 1016.3
20260902063043 73 0 0.0 0.0 0.00 0.00 0.00 92 1016.4
20260902061553 72 0 0.0 0.0 0.00 0.00 0.00 92 1016.4
20260902060051 73 0 0.0 0.0 0.00 0.00 0.00 91 1016.6
20260902054541 73 0 0.0 1.0 0.00 0.00 0.00 91 1016.5
20260902053038 73 0 0.0 3.0 0.00 0.00 0.00 92 1016.5